Location: Marsån
(66.4167°N, 22.2833°E)
Time: 07:15:35
(UTC+00:00)

SJ 16-02 - Pass Details

Date: 24 February 2024
Orbit: 595 x 607 km, 75.0° (Epoch: 21 April)

Event Time Altitude Azimuth Distance (km) Brightness Sun altitude
Rises 17:03:01 0° 157° (SSE) 2,858 4.5 -10.6°
Reaches altitude 10° 17:05:54 10° 137° (SE) 1,962 3.5 -10.8°
Maximum altitude 17:08:41 17° 97° (E) 1,567 2.8 -11.1°
Enters shadow 17:09:44 16° 80° (E) 1,632 2.9 -11.2°
